User: anonymous   Login
Location: Unspecified
(0.0000°N, 0.0000°E)
Time: 00:07:50
(UTC+00:00)
Language:

OBJECT AL - Orbit

View from above orbital plane
View from above orbital plane
View from above satellite
View from above satellite

Ground track
Ground track

The orbit is defined by the following mean orbital elements,

1 57200U          26145.63307725 +.00000000 +00000-0 +55593-3 0 00008
2 57200  97.5064 219.2274 0007656 133.0590 227.1300 15.44325714    00
Epoch (UTC): 25 May 2026 15:11:37
Eccentricity: 0.0007656
inclination: 97.5064°
perigee height: 428 km
apogee height: 439 km
right ascension of ascending node: 219.2274°
argument of perigee: 133.0590°
revolutions per day: 15.44325714
mean anomaly at epoch: 227.1300°

The dashed part of the orbit path shows where the satellite is in the earth's shadow,  

DLR